Hourly Data Report for January 08, 2022

RANKIN INLET A
NUNAVUT
Current Station Operator: NAVCAN

62°48'38.000" N
92°06'53.000" W
32.30 m
2303405
71083
YRT

Download Data

Hourly Data (January 2022)
Hourly Data Report for January 8, 2022
TIME
LST
Temp Definition
°C
Dew Point Definition
°C
Rel Hum Definition
%
Precip. Amount Definition
mm

Wind Dir Definition
10's deg

Wind Spd Definition
km/h
Visibility Definition
km
Stn Press Definition
kPa
Hmdx Definition


Wind Chill Definition


Weather Definition


00:00 -30.4 -34.2 70   25 7 24.1 99.92   -38 Mainly Clear
01:00 -30.0 -33.7 70   29 8 24.1 99.98   -38 Snow
02:00 -29.3 -33.2 70   4 4 24.1 99.99   -34 Snow
03:00 -29.7 -33.5 70   33 4 24.1 100.00   -34 Snow
04:00 -30.5 -34.4 69   34 9 24.1 100.04   -39 Snow
05:00 -29.9 -33.8 70   32 8 24.1 100.06   -38 LegendNANA
06:00 -31.0 -34.9 69   35 8 24.1 100.08   -39 Mainly Clear
07:00 -30.8 -34.7 69   33 7 24.1 100.14   -38 LegendNANA
08:00 -31.9 -35.8 69   35 8 24.1 100.15   -40 LegendNANA
09:00 -30.9 -34.7 70   36 6 24.1 100.13   -38 Mostly Cloudy
10:00 -31.2 -35.1 70   36 7 9.7 100.15   -39 Ice Crystals
11:00 -30.7 -34.6 70   36 9 9.7 100.17   -39 Ice Crystals
12:00 -29.3 -33.2 70   33 4 16.1 100.18   -34 Ice Crystals
13:00 -31.4 -35.3 69   35 7 16.1 100.17   -39 Ice Crystals
14:00 -29.8 -33.6 70   35 8 9.7 100.17   -38 Ice Crystals
15:00 -32.7 -36.6 69   33 10 9.7 100.21   -42 Ice Crystals
16:00 -32.8 -36.8 69   35 10 24.1 100.23   -42 LegendNANA
17:00 -32.4 -36.4 69   34 13 24.1 100.25   -44 LegendNANA
18:00 -32.6 -36.6 68   36 11 24.1 100.25   -43 Mostly Cloudy
19:00 -33.0 -37.1 68   35 12 24.1 100.23   -44 LegendNANA
20:00 -33.2 -37.3 68   34 15 16.1 100.25   -45 Ice Crystals
21:00 -33.7 -37.8 68   34 17 16.1 100.22   -47 Ice Crystals
22:00 -34.1 -38.2 67   33 16 16.1 100.21   -47 Ice Crystals
23:00 -35.1 -39.3 66   34 13 9.7 100.23   -47 Snow,Ice Crystals

Notes on Data Quality.

Legend

  • E = Estimated
  • M = Missing
  • NA = Not Available*
  • [empty] = Indicates an unobserved value
Date modified: